Location: Emporia
(38.4040°N, 96.1810°W)
Time: 17:59:58
(UTC-06:00)

ISS - Visible Passes

Search period start: 05 March 2015 00:00
Search period end: 15 March 2015 01:00
Orbit: 397 x 408 km, 51.6° (Epoch: 05 March)

Date Brightness Start Highest point End Pass type
(mag) Time Alt. Az. Time Alt. Az. Time Alt. Az.
07 Mar -0.3 06:12:29 10° SSE 06:14:21 15° SE 06:16:18 10° E visible
09 Mar -1.9 07:01:41 10° SSW 07:04:40 36° SE 07:07:42 10° ENE visible
10 Mar -0.8 06:09:42 11° S 06:11:49 18° SE 06:14:08 10° E visible
11 Mar -3.4 06:52:05 12° SW 06:55:00 83° NW 06:58:14 10° NE visible
12 Mar -2.6 06:01:37 42° SSE 06:02:00 44° SE 06:05:06 10° ENE visible
13 Mar -0.1 05:10:58 14° E 05:10:58 14° E 05:11:37 10° E visible
13 Mar -2.5 06:43:36 20° W 06:45:20 35° NNW 06:48:21 10° NE visible
14 Mar -2.7 05:52:48 51° NNE 05:52:48 51° NNE 05:55:24 10° NE visible
